Вернуться в каталог

STARLINK-34383

АктивенСвязьVLEO
NORAD 64305·PAYLOAD·🇺🇸 United States

Запущен Jun 8, 2025 с Vandenberg Space Force Base

Loading…

Ближайшие Пролёты (ближайшие 24 часа)

TLE

СвежийSource: CelesTrak SupGP

Эпоха: Sep 14, 2026, 21:10 UTC

1 64305C 25123Q   26257.88243056  .00029160  00000+0  10146-2 0  2577
2 64305  70.0000  75.7648 0003457 272.7842 302.7856 15.29557367    17

Отслеживайте STARLINK-34383 в реальном времени с AllMySat

Download on the App Store